Time,TemperatureF,DewpointF,PressureIn,WindDirection,WindDirectionDegrees,WindSpeedMPH,WindSpeedGustMPH,Humidity,HourlyPrecipIn,Conditions,Clouds,dailyrainin,SoftwareType,DateUTC
2013-03-05 00:00:00,21.3,12.4,30.11,East,90,0.0,0.0,68,0.00,,---,0.06,VWS V14.01,2013-03-05 05:00:00,
2013-03-05 00:01:00,21.3,12.4,30.11,East,90,0.0,0.0,68,0.00,,---,0.00,VWS V14.01,2013-03-05 05:01:00,
2013-03-05 00:03:00,21.0,12.1,30.11,East,90,0.0,0.0,68,0.00,,---,0.00,VWS V14.01,2013-03-05 05:03:00,
2013-03-05 00:08:00,21.0,12.1,30.11,East,90,0.0,0.0,68,0.00,,---,0.00,VWS V14.01,2013-03-05 05:08:00,
2013-03-05 00:13:00,20.8,11.9,30.11,East,90,0.0,0.0,68,0.00,,---,0.00,VWS V14.01,2013-03-05 05:13:00,
2013-03-05 00:18:00,20.8,11.9,30.11,East,90,0.0,0.0,68,0.00,,---,0.00,VWS V14.01,2013-03-05 05:18:00,
2013-03-05 00:23:00,20.8,11.9,30.11,East,90,0.0,0.0,68,0.00,,---,0.00,VWS V14.01,2013-03-05 05:23:00,
2013-03-05 00:28:00,20.4,11.5,30.11,East,90,0.0,0.0,68,0.00,,---,0.00,VWS V14.01,2013-03-05 05:28:00,
2013-03-05 00:33:00,20.4,11.5,30.11,East,90,0.0,0.0,68,0.00,,---,0.00,VWS V14.01,2013-03-05 05:33:00,
2013-03-05 00:38:00,20.3,11.4,30.12,East,90,0.0,0.0,68,0.00,,---,0.00,VWS V14.01,2013-03-05 05:38:00,
2013-03-05 00:43:00,20.1,11.6,30.12,ENE,68,0.0,0.0,69,0.00,,---,0.00,VWS V14.01,2013-03-05 05:43:00,
2013-03-05 00:48:00,19.9,11.4,30.11,ENE,68,0.0,0.0,69,0.00,,---,0.00,VWS V14.01,2013-03-05 05:48:00,
2013-03-05 00:53:00,19.9,11.4,30.12,ENE,68,0.0,0.0,69,0.00,,---,0.00,VWS V14.01,2013-03-05 05:53:00,
2013-03-05 00:58:00,19.9,11.4,30.12,ENE,68,0.0,0.0,69,0.00,,---,0.00,VWS V14.01,2013-03-05 05:58:00,
2013-03-05 01:03:00,19.9,11.4,30.12,ENE,68,0.0,0.0,69,0.00,,---,0.00,VWS V14.01,2013-03-05 06:03:00,
2013-03-05 01:08:00,19.5,11.0,30.12,ENE,68,0.0,0.0,69,0.00,,---,0.00,VWS V14.01,2013-03-05 06:08:00,
2013-03-05 01:13:00,19.5,11.0,30.12,ENE,68,0.0,0.0,69,0.00,,---,0.00,VWS V14.01,2013-03-05 06:13:00,
2013-03-05 01:18:00,19.5,11.0,30.12,ENE,68,0.0,0.0,69,0.00,,---,0.00,VWS V14.01,2013-03-05 06:18:00,
2013-03-05 01:23:00,19.4,10.9,30.12,ENE,68,0.0,0.0,69,0.00,,---,0.00,VWS V14.01,2013-03-05 06:23:00,
2013-03-05 01:28:00,19.2,10.7,30.12,ENE,68,0.0,0.0,69,0.00,,---,0.00,VWS V14.01,2013-03-05 06:28:00,
2013-03-05 01:33:00,19.2,11.0,30.12,ENE,68,0.0,0.0,70,0.00,,---,0.00,VWS V14.01,2013-03-05 06:33:00,
2013-03-05 01:38:00,19.2,11.0,30.12,ENE,68,0.0,0.0,70,0.00,,---,0.00,VWS V14.01,2013-03-05 06:38:00,
2013-03-05 01:43:00,19.0,10.8,30.12,ENE,68,0.0,0.0,70,0.00,,---,0.00,VWS V14.01,2013-03-05 06:43:00,
2013-03-05 01:48:00,19.0,10.8,30.12,ENE,68,0.0,0.0,70,0.00,,---,0.00,VWS V14.01,2013-03-05 06:48:00,
2013-03-05 01:53:00,18.8,10.6,30.12,ENE,68,0.0,0.0,70,0.00,,---,0.00,VWS V14.01,2013-03-05 06:53:00,
2013-03-05 01:58:00,18.6,10.8,30.12,ENE,68,0.0,0.0,71,0.00,,---,0.00,VWS V14.01,2013-03-05 06:58:00,
2013-03-05 02:03:00,18.6,10.8,30.12,ENE,68,0.0,0.0,71,0.00,,---,0.00,VWS V14.01,2013-03-05 07:03:00,
2013-03-05 02:08:00,18.5,10.7,30.12,ENE,68,0.0,0.0,71,0.00,,---,0.00,VWS V14.01,2013-03-05 07:08:00,
2013-03-05 02:13:00,18.3,10.8,30.12,ENE,68,0.0,0.0,72,0.00,,---,0.00,VWS V14.01,2013-03-05 07:13:00,
2013-03-05 02:18:00,18.3,10.8,30.12,ENE,68,0.0,0.0,72,0.00,,---,0.00,VWS V14.01,2013-03-05 07:18:00,
2013-03-05 02:23:00,18.3,10.8,30.11,ENE,68,0.0,0.0,72,0.00,,---,0.00,VWS V14.01,2013-03-05 07:23:00,
2013-03-05 02:28:00,18.1,10.6,30.11,ENE,68,0.0,0.0,72,0.00,,---,0.00,VWS V14.01,2013-03-05 07:28:00,
2013-03-05 02:33:00,17.9,10.4,30.11,ENE,68,0.0,0.0,72,0.00,,---,0.00,VWS V14.01,2013-03-05 07:33:00,
2013-03-05 02:38:00,17.7,10.2,30.11,ENE,68,0.0,0.0,72,0.00,,---,0.00,VWS V14.01,2013-03-05 07:38:00,
2013-03-05 02:43:00,17.7,10.5,30.11,ENE,68,0.0,0.0,73,0.00,,---,0.00,VWS V14.01,2013-03-05 07:43:00,
2013-03-05 02:48:00,17.7,10.5,30.11,ENE,68,0.0,0.0,73,0.00,,---,0.00,VWS V14.01,2013-03-05 07:48:00,
2013-03-05 02:53:00,17.4,10.2,30.10,ENE,68,0.0,0.0,73,0.00,,---,0.00,VWS V14.01,2013-03-05 07:53:00,
2013-03-05 02:58:00,17.4,10.2,30.10,ENE,68,0.0,0.0,73,0.00,,---,0.00,VWS V14.01,2013-03-05 07:58:00,
2013-03-05 03:03:00,17.4,10.2,30.10,ENE,68,0.0,0.0,73,0.00,,---,0.00,VWS V14.01,2013-03-05 08:03:00,
2013-03-05 03:08:00,17.4,10.2,30.10,ENE,68,0.0,0.0,73,0.00,,---,0.00,VWS V14.01,2013-03-05 08:08:00,
2013-03-05 03:13:00,17.4,10.2,30.10,ENE,68,0.0,0.0,73,0.00,,---,0.00,VWS V14.01,2013-03-05 08:13:00,
2013-03-05 03:18:00,17.4,10.2,30.09,ENE,68,0.0,0.0,73,0.00,,---,0.00,VWS V14.01,2013-03-05 08:18:00,
2013-03-05 03:23:00,17.4,10.2,30.09,ENE,68,0.0,0.0,73,0.00,,---,0.00,VWS V14.01,2013-03-05 08:23:00,
2013-03-05 03:28:00,17.4,10.2,30.09,ENE,68,0.0,0.0,73,0.00,,---,0.00,VWS V14.01,2013-03-05 08:28:00,
2013-03-05 03:33:00,17.4,10.2,30.09,ENE,68,0.0,0.0,73,0.00,,---,0.00,VWS V14.01,2013-03-05 08:33:00,
2013-03-05 03:38:00,17.4,10.2,30.09,ENE,68,0.0,0.0,73,0.00,,---,0.00,VWS V14.01,2013-03-05 08:38:00,
2013-03-05 03:43:00,17.4,10.2,30.09,ENE,68,0.0,0.0,73,0.00,,---,0.00,VWS V14.01,2013-03-05 08:43:00,
2013-03-05 03:48:00,17.2,10.1,30.09,ENE,68,0.0,0.0,73,0.00,,---,0.00,VWS V14.01,2013-03-05 08:48:00,
2013-03-05 03:53:00,17.2,10.1,30.09,ENE,68,0.0,0.0,73,0.00,,---,0.00,VWS V14.01,2013-03-05 08:53:00,
2013-03-05 03:58:00,17.2,10.1,30.09,ENE,68,0.0,0.0,73,0.00,,---,0.00,VWS V14.01,2013-03-05 08:58:00,
2013-03-05 04:04:00,17.2,10.1,30.09,ENE,68,0.0,0.0,73,0.00,,---,0.00,VWS V14.01,2013-03-05 09:04:00,
2013-03-05 04:09:00,17.0,9.9,30.08,ENE,68,0.0,0.0,73,0.00,,---,0.00,VWS V14.01,2013-03-05 09:09:00,
2013-03-05 04:14:00,16.8,9.7,30.09,ENE,68,0.0,0.0,73,0.00,,---,0.00,VWS V14.01,2013-03-05 09:14:00,
2013-03-05 04:19:00,16.7,9.9,30.09,ENE,68,0.0,0.0,74,0.00,,---,0.00,VWS V14.01,2013-03-05 09:19:00,
2013-03-05 04:24:00,16.5,9.7,30.09,ENE,68,0.0,0.0,74,0.00,,---,0.00,VWS V14.01,2013-03-05 09:24:00,
2013-03-05 04:29:00,16.5,9.7,30.09,ENE,68,0.0,0.0,74,0.00,,---,0.00,VWS V14.01,2013-03-05 09:29:00,
2013-03-05 04:34:00,16.3,9.5,30.09,ENE,68,0.0,0.0,74,0.00,,---,0.00,VWS V14.01,2013-03-05 09:34:00,
2013-03-05 04:39:00,16.3,9.5,30.08,ENE,68,0.0,0.0,74,0.00,,---,0.00,VWS V14.01,2013-03-05 09:39:00,
2013-03-05 04:44:00,16.3,9.5,30.08,ENE,68,0.0,0.0,74,0.00,,---,0.00,VWS V14.01,2013-03-05 09:44:00,
2013-03-05 04:49:00,16.3,9.5,30.08,ENE,68,0.0,0.0,74,0.00,,---,0.00,VWS V14.01,2013-03-05 09:49:00,
2013-03-05 04:54:00,16.3,9.5,30.08,ENE,68,0.0,0.0,74,0.00,,---,0.00,VWS V14.01,2013-03-05 09:54:00,
2013-03-05 04:59:00,16.3,9.5,30.08,ENE,68,0.0,0.0,74,0.00,,---,0.00,VWS V14.01,2013-03-05 09:59:00,
2013-03-05 05:04:00,16.3,9.5,30.08,ENE,68,0.0,0.0,74,0.00,,---,0.00,VWS V14.01,2013-03-05 10:04:00,
2013-03-05 05:09:00,16.3,9.5,30.08,ENE,68,0.0,0.0,74,0.00,,---,4.48,VWS V14.01,2013-03-05 10:09:00,
2013-03-05 05:14:00,16.3,9.5,30.08,NE,45,0.0,0.0,74,0.00,,---,4.48,VWS V14.01,2013-03-05 10:14:00,
2013-03-05 05:19:00,16.3,9.5,30.07,NE,45,0.0,0.0,74,0.00,,---,4.48,VWS V14.01,2013-03-05 10:19:00,
2013-03-05 05:24:00,16.3,9.5,30.07,ENE,68,0.0,0.0,74,0.00,,---,4.48,VWS V14.01,2013-03-05 10:24:00,
2013-03-05 05:29:00,16.3,9.5,30.07,ENE,68,0.0,0.0,74,0.00,,---,4.48,VWS V14.01,2013-03-05 10:29:00,
2013-03-05 05:34:00,16.5,10.0,30.07,NE,45,0.0,0.0,75,0.00,,---,4.48,VWS V14.01,2013-03-05 10:34:00,
2013-03-05 05:39:00,16.5,10.0,30.07,NE,45,0.0,0.0,75,0.00,,---,4.48,VWS V14.01,2013-03-05 10:39:00,
2013-03-05 05:44:00,16.7,10.2,30.08,NE,45,0.0,0.0,75,0.00,,---,4.48,VWS V14.01,2013-03-05 10:44:00,
2013-03-05 05:49:00,16.7,10.2,30.07,NE,45,0.0,0.0,75,0.00,,---,4.48,VWS V14.01,2013-03-05 10:49:00,
2013-03-05 05:54:00,16.7,10.2,30.08,NE,45,0.0,0.0,75,0.00,,---,4.48,VWS V14.01,2013-03-05 10:54:00,
2013-03-05 05:59:00,16.5,10.0,30.07,NE,45,0.0,0.0,75,0.00,,---,4.48,VWS V14.01,2013-03-05 10:59:00,
2013-03-05 06:04:00,16.5,10.0,30.07,NE,45,0.0,0.0,75,0.00,,---,4.48,VWS V14.01,2013-03-05 11:04:00,
2013-03-05 06:09:00,16.3,9.8,30.07,NE,45,0.0,0.0,75,0.00,,---,4.48,VWS V14.01,2013-03-05 11:09:00,
2013-03-05 06:14:00,16.3,9.8,30.07,NE,45,0.0,0.0,75,0.00,,---,4.48,VWS V14.01,2013-03-05 11:14:00,
2013-03-05 06:19:00,16.3,9.8,30.07,NE,45,0.0,0.0,75,0.00,,---,4.48,VWS V14.01,2013-03-05 11:19:00,
2013-03-05 06:24:00,16.3,9.8,30.07,NE,45,0.0,0.0,75,0.00,,---,4.48,VWS V14.01,2013-03-05 11:24:00,
2013-03-05 06:29:00,16.5,10.3,30.07,NE,45,0.0,0.0,76,0.00,,---,4.48,VWS V14.01,2013-03-05 11:29:00,
2013-03-05 06:34:00,16.5,10.3,30.07,NE,45,0.0,0.0,76,0.00,,---,4.48,VWS V14.01,2013-03-05 11:34:00,
2013-03-05 06:39:00,16.5,10.3,30.07,ENE,68,0.0,0.0,76,0.00,,---,4.48,VWS V14.01,2013-03-05 11:39:00,
2013-03-05 06:44:00,16.7,10.5,30.07,NE,45,0.0,0.0,76,0.00,,---,4.48,VWS V14.01,2013-03-05 11:44:00,
2013-03-05 06:49:00,16.8,10.6,30.07,NE,45,0.0,0.0,76,0.00,,---,4.48,VWS V14.01,2013-03-05 11:49:00,
2013-03-05 06:54:00,16.8,10.6,30.07,NE,45,0.0,0.0,76,0.00,,---,4.48,VWS V14.01,2013-03-05 11:54:00,
2013-03-05 06:59:00,17.2,10.9,30.07,NE,45,0.0,0.0,76,0.00,,---,4.48,VWS V14.01,2013-03-05 11:59:00,
2013-03-05 07:04:00,17.2,10.9,30.07,NE,45,0.0,0.0,76,0.00,,---,4.48,VWS V14.01,2013-03-05 12:04:00,
2013-03-05 07:09:00,17.4,11.1,30.07,NE,45,0.0,0.0,76,0.00,,---,4.48,VWS V14.01,2013-03-05 12:09:00,
2013-03-05 07:14:00,17.4,11.1,30.07,NE,45,0.0,0.0,76,0.00,,---,4.48,VWS V14.01,2013-03-05 12:14:00,
2013-03-05 07:19:00,17.6,11.3,30.07,NE,45,0.0,0.0,76,0.00,,---,4.48,VWS V14.01,2013-03-05 12:19:00,
2013-03-05 07:24:00,17.7,11.4,30.07,NE,45,0.0,0.0,76,0.00,,---,4.48,VWS V14.01,2013-03-05 12:24:00,
2013-03-05 07:29:00,17.7,11.4,30.07,NE,45,0.0,0.0,76,0.00,,---,4.48,VWS V14.01,2013-03-05 12:29:00,
2013-03-05 07:34:00,17.7,11.4,30.07,NE,45,0.0,0.0,76,0.00,,---,4.48,VWS V14.01,2013-03-05 12:34:00,
2013-03-05 07:39:00,17.7,11.7,30.07,NE,45,0.0,0.0,77,0.00,,---,4.48,VWS V14.01,2013-03-05 12:39:00,
2013-03-05 07:44:00,17.9,11.9,30.07,ENE,68,0.0,0.0,77,0.00,,---,4.48,VWS V14.01,2013-03-05 12:44:00,
2013-03-05 07:49:00,18.3,12.3,30.07,NE,45,0.0,0.0,77,0.00,,---,4.48,VWS V14.01,2013-03-05 12:49:00,
2013-03-05 07:54:00,18.3,12.3,30.06,NE,45,0.0,0.0,77,0.00,,---,4.48,VWS V14.01,2013-03-05 12:54:00,
2013-03-05 07:59:00,18.6,12.6,30.07,ENE,68,0.0,0.0,77,0.00,,---,4.48,VWS V14.01,2013-03-05 12:59:00,
2013-03-05 08:04:00,19.0,13.0,30.07,ENE,68,0.0,0.0,77,0.00,,---,4.48,VWS V14.01,2013-03-05 13:04:00,
2013-03-05 08:09:00,19.2,13.2,30.06,NE,45,0.0,0.0,77,0.00,,---,4.48,VWS V14.01,2013-03-05 13:09:00,
2013-03-05 08:14:00,19.5,13.8,30.06,NE,45,0.0,0.0,78,0.00,,---,4.48,VWS V14.01,2013-03-05 13:14:00,
2013-03-05 08:19:00,19.9,14.2,30.06,ENE,68,0.0,0.0,78,0.00,,---,4.48,VWS V14.01,2013-03-05 13:19:00,
2013-03-05 08:24:00,20.1,14.4,30.05,ENE,68,0.0,0.0,78,0.00,,---,4.48,VWS V14.01,2013-03-05 13:24:00,
2013-03-05 08:29:00,20.4,14.6,30.06,NE,45,0.0,0.0,78,0.00,,---,4.48,VWS V14.01,2013-03-05 13:29:00,
2013-03-05 08:34:00,20.8,15.0,30.05,ENE,68,0.0,0.0,78,0.00,,---,4.48,VWS V14.01,2013-03-05 13:34:00,
2013-03-05 08:39:00,21.3,15.5,30.05,ENE,68,0.0,0.0,78,0.00,,---,4.48,VWS V14.01,2013-03-05 13:39:00,
2013-03-05 08:44:00,21.9,16.1,30.06,ENE,68,8.2,8.2,78,0.00,,---,4.48,VWS V14.01,2013-03-05 13:44:00,
2013-03-05 08:49:00,22.2,16.4,30.06,NE,45,0.0,0.0,78,0.00,,---,4.48,VWS V14.01,2013-03-05 13:49:00,
2013-03-05 08:54:00,22.6,16.8,30.06,ENE,68,0.0,0.0,78,0.00,,---,4.48,VWS V14.01,2013-03-05 13:54:00,
2013-03-05 08:59:00,23.0,16.9,30.06,SE,135,0.0,0.0,77,0.00,,---,4.48,VWS V14.01,2013-03-05 13:59:00,
2013-03-05 09:04:00,23.3,17.2,30.06,East,90,0.0,0.0,77,0.00,,---,4.48,VWS V14.01,2013-03-05 14:04:00,
2013-03-05 09:09:00,23.5,17.4,30.05,ENE,68,5.8,5.8,77,0.00,,---,4.48,VWS V14.01,2013-03-05 14:09:00,
2013-03-05 09:14:00,24.0,17.9,30.06,ENE,68,3.1,3.1,77,0.00,,---,4.48,VWS V14.01,2013-03-05 14:14:00,
2013-03-05 09:19:00,24.4,18.2,30.05,ENE,68,2.6,2.6,77,0.00,,---,4.48,VWS V14.01,2013-03-05 14:19:00,
2013-03-05 09:24:00,24.8,18.6,30.06,ENE,68,5.8,5.8,77,0.00,,---,4.48,VWS V14.01,2013-03-05 14:24:00,
2013-03-05 09:29:00,25.3,18.8,30.05,NE,45,5.8,5.8,76,0.00,,---,4.48,VWS V14.01,2013-03-05 14:29:00,
2013-03-05 09:34:00,25.5,19.0,30.05,ENE,68,2.0,2.0,76,0.00,,---,4.48,VWS V14.01,2013-03-05 14:34:00,
2013-03-05 09:39:00,25.8,19.3,30.05,ENE,68,0.0,0.0,76,0.00,,---,4.48,VWS V14.01,2013-03-05 14:39:00,
2013-03-05 09:44:00,26.4,19.6,30.05,East,90,4.2,4.2,75,0.00,,---,4.48,VWS V14.01,2013-03-05 14:44:00,
2013-03-05 09:49:00,26.7,19.9,30.05,ENE,68,4.9,4.9,75,0.00,,---,4.48,VWS V14.01,2013-03-05 14:49:00,
2013-03-05 09:54:00,27.1,20.2,30.05,ENE,68,5.1,5.1,75,0.00,,---,4.48,VWS V14.01,2013-03-05 14:54:00,
2013-03-05 09:59:00,27.5,20.3,30.05,East,90,7.3,8.5,74,0.00,,---,4.48,VWS V14.01,2013-03-05 14:59:00,
2013-03-05 10:04:00,27.6,20.4,30.05,NE,45,4.6,4.6,74,0.00,,---,4.48,VWS V14.01,2013-03-05 15:04:00,
2013-03-05 10:09:00,28.0,20.8,30.04,East,90,3.8,3.8,74,0.00,,---,4.48,VWS V14.01,2013-03-05 15:09:00,
2013-03-05 10:14:00,28.5,21.3,30.04,East,90,4.4,7.1,74,0.00,,---,4.48,VWS V14.01,2013-03-05 15:14:00,
2013-03-05 10:19:00,28.9,21.7,30.04,ENE,68,4.0,4.0,74,0.00,,---,4.48,VWS V14.01,2013-03-05 15:19:00,
2013-03-05 10:24:00,29.1,21.5,30.04,ENE,68,8.0,8.0,73,0.00,,---,4.48,VWS V14.01,2013-03-05 15:24:00,
2013-03-05 10:29:00,29.4,21.8,30.03,ENE,68,5.8,6.7,73,0.00,,---,4.48,VWS V14.01,2013-03-05 15:29:00,
2013-03-05 10:34:00,29.8,22.2,30.03,East,90,7.1,7.1,73,0.00,,---,4.48,VWS V14.01,2013-03-05 15:34:00,
2013-03-05 10:39:00,30.0,22.4,30.03,East,90,0.0,0.0,73,0.00,,---,4.48,VWS V14.01,2013-03-05 15:39:00,
2013-03-05 10:44:00,30.3,22.4,30.03,East,90,6.9,6.9,72,0.00,,---,4.48,VWS V14.01,2013-03-05 15:44:00,
2013-03-05 10:49:00,30.5,22.6,30.03,ENE,68,6.2,6.2,72,0.00,,---,4.48,VWS V14.01,2013-03-05 15:49:00,
2013-03-05 10:54:00,30.5,22.6,30.02,East,90,6.2,6.2,72,0.00,,---,4.48,VWS V14.01,2013-03-05 15:54:00,
2013-03-05 10:59:00,30.7,22.4,30.03,East,90,1.3,2.6,71,0.00,,---,4.48,VWS V14.01,2013-03-05 15:59:00,
2013-03-05 11:04:00,30.7,22.4,30.02,ENE,68,6.0,6.0,71,0.00,,---,4.48,VWS V14.01,2013-03-05 16:04:00,
2013-03-05 11:09:00,30.9,22.6,30.02,NE,45,6.2,6.2,71,0.00,,---,4.48,VWS V14.01,2013-03-05 16:09:00,
2013-03-05 11:14:00,30.9,22.6,30.02,NNE,22,6.7,6.7,71,0.00,,---,4.48,VWS V14.01,2013-03-05 16:14:00,
2013-03-05 11:19:00,30.9,22.6,30.02,ENE,68,6.0,6.0,71,0.00,,---,4.48,VWS V14.01,2013-03-05 16:19:00,
2013-03-05 11:24:00,31.1,22.8,30.02,NE,45,5.5,5.5,71,0.00,,---,4.48,VWS V14.01,2013-03-05 16:24:00,
2013-03-05 11:29:00,31.1,22.8,30.02,ENE,68,4.6,6.4,71,0.00,,---,4.48,VWS V14.01,2013-03-05 16:29:00,
2013-03-05 11:34:00,31.2,22.9,30.02,NE,45,7.6,7.6,71,0.00,,---,4.48,VWS V14.01,2013-03-05 16:34:00,
2013-03-05 11:39:00,31.2,22.9,30.01,ENE,68,2.6,2.6,71,0.00,,---,4.48,VWS V14.01,2013-03-05 16:39:00,
2013-03-05 11:44:00,31.2,22.9,30.01,ENE,68,6.7,6.7,71,0.00,,---,4.48,VWS V14.01,2013-03-05 16:44:00,
2013-03-05 11:49:00,31.6,23.3,30.01,NE,45,6.7,6.7,71,0.00,,---,4.48,VWS V14.01,2013-03-05 16:49:00,
2013-03-05 11:54:00,31.6,23.3,30.01,NE,45,8.7,8.7,71,0.00,,---,4.48,VWS V14.01,2013-03-05 16:54:00,
2013-03-05 11:59:00,31.6,23.3,30.01,ENE,68,5.5,8.2,71,0.00,,---,4.48,VWS V14.01,2013-03-05 16:59:00,
2013-03-05 12:04:00,31.6,23.3,30.01,East,90,9.1,9.1,71,0.00,,---,4.48,VWS V14.01,2013-03-05 17:04:00,
2013-03-05 12:09:00,31.8,23.5,30.00,ENE,68,4.4,4.4,71,0.00,,---,4.48,VWS V14.01,2013-03-05 17:09:00,
2013-03-05 12:14:00,31.8,23.5,30.00,ENE,68,8.2,8.2,71,0.00,,---,4.48,VWS V14.01,2013-03-05 17:14:00,
2013-03-05 12:19:00,32.1,23.4,30.01,SSE,158,2.6,2.6,70,0.00,,---,4.48,VWS V14.01,2013-03-05 17:19:00,
2013-03-05 12:24:00,32.1,23.4,30.00,ENE,68,7.1,7.1,70,0.00,,---,4.48,VWS V14.01,2013-03-05 17:24:00,
2013-03-05 12:29:00,32.1,23.4,30.00,ESE,112,4.0,8.7,70,0.00,,---,4.48,VWS V14.01,2013-03-05 17:29:00,
2013-03-05 12:34:00,32.3,23.6,30.00,NE,45,6.2,6.2,70,0.00,,---,4.48,VWS V14.01,2013-03-05 17:34:00,
2013-03-05 12:39:00,32.5,23.8,29.99,ENE,68,3.5,3.5,70,0.00,,---,4.48,VWS V14.01,2013-03-05 17:39:00,
2013-03-05 12:44:00,32.7,24.0,29.99,ENE,68,3.8,4.9,70,0.00,,---,4.48,VWS V14.01,2013-03-05 17:44:00,
2013-03-05 12:49:00,32.9,24.2,29.99,ENE,68,7.3,7.3,70,0.00,,---,4.48,VWS V14.01,2013-03-05 17:49:00,
2013-03-05 12:54:00,32.9,23.9,29.99,ENE,68,4.9,4.9,69,0.00,,---,4.48,VWS V14.01,2013-03-05 17:54:00,
2013-03-05 12:59:00,33.2,24.1,29.99,ENE,68,9.8,9.8,69,0.00,,---,4.48,VWS V14.01,2013-03-05 17:59:00,
2013-03-05 13:04:00,33.4,24.3,29.98,ENE,68,7.6,7.6,69,0.00,,---,4.48,VWS V14.01,2013-03-05 18:04:00,
2013-03-05 13:09:00,33.4,24.0,29.98,NE,45,6.9,6.9,68,0.00,,---,4.48,VWS V14.01,2013-03-05 18:09:00,
2013-03-05 13:14:00,33.6,24.2,29.98,NE,45,2.2,2.2,68,0.00,,---,4.48,VWS V14.01,2013-03-05 18:14:00,
2013-03-05 13:19:00,33.8,24.4,29.97,East,90,5.5,5.5,68,0.00,,---,4.48,VWS V14.01,2013-03-05 18:19:00,
2013-03-05 13:24:00,33.8,24.4,29.97,NE,45,4.4,4.4,68,0.00,,---,4.48,VWS V14.01,2013-03-05 18:24:00,
2013-03-05 13:29:00,33.8,24.4,29.97,East,90,6.9,6.9,68,0.00,,---,4.48,VWS V14.01,2013-03-05 18:29:00,
2013-03-05 13:34:00,33.8,24.4,29.97,East,90,6.0,6.0,68,0.00,,---,4.48,VWS V14.01,2013-03-05 18:34:00,
2013-03-05 13:39:00,33.9,24.5,29.97,NE,45,8.9,8.9,68,0.00,,---,4.48,VWS V14.01,2013-03-05 18:39:00,
2013-03-05 13:44:00,33.9,24.5,29.97,ENE,68,8.5,8.5,68,0.00,,---,4.48,VWS V14.01,2013-03-05 18:44:00,
2013-03-05 13:49:00,33.9,24.5,29.97,East,90,8.0,8.0,68,0.00,,---,4.48,VWS V14.01,2013-03-05 18:49:00,
2013-03-05 13:54:00,33.9,24.5,29.96,ENE,68,8.7,8.7,68,0.00,,---,4.48,VWS V14.01,2013-03-05 18:54:00,
2013-03-05 13:59:00,34.1,24.3,29.96,ENE,68,10.2,10.2,67,0.00,,---,4.48,VWS V14.01,2013-03-05 18:59:00,
2013-03-05 14:04:00,33.8,24.0,29.95,ENE,68,3.8,3.8,67,0.00,,---,4.48,VWS V14.01,2013-03-05 19:04:00,
2013-03-05 14:09:00,33.6,23.8,29.95,East,90,8.2,8.2,67,0.00,,---,4.48,VWS V14.01,2013-03-05 19:09:00,
2013-03-05 14:14:00,33.6,24.2,29.95,ENE,68,8.0,8.0,68,0.00,,---,4.48,VWS V14.01,2013-03-05 19:14:00,
2013-03-05 14:19:00,33.6,24.2,29.95,ENE,68,10.2,10.2,68,0.00,,---,4.48,VWS V14.01,2013-03-05 19:19:00,
2013-03-05 14:24:00,33.6,24.2,29.94,East,90,0.0,0.0,68,0.00,,---,4.48,VWS V14.01,2013-03-05 19:24:00,
2013-03-05 14:29:00,33.6,24.2,29.94,ESE,112,5.5,5.5,68,0.00,,---,4.48,VWS V14.01,2013-03-05 19:29:00,
2013-03-05 14:34:00,33.6,23.8,29.93,ENE,68,8.2,8.2,67,0.00,,---,4.48,VWS V14.01,2013-03-05 19:34:00,
2013-03-05 14:39:00,33.8,24.4,29.93,ENE,68,7.1,7.1,68,0.00,,---,4.48,VWS V14.01,2013-03-05 19:39:00,
2013-03-05 14:44:00,34.1,24.7,29.93,NE,45,1.7,8.7,68,0.00,,---,4.48,VWS V14.01,2013-03-05 19:44:00,
2013-03-05 14:49:00,34.1,24.7,29.93,NE,45,6.7,6.7,68,0.00,,---,4.48,VWS V14.01,2013-03-05 19:49:00,
2013-03-05 14:55:00,34.1,24.7,29.93,East,90,4.4,4.4,68,0.00,,---,4.48,VWS V14.01,2013-03-05 19:55:00,
2013-03-05 15:00:00,33.8,24.4,29.92,NE,45,4.6,4.6,68,0.00,,---,4.48,VWS V14.01,2013-03-05 20:00:00,
2013-03-05 15:05:00,33.6,24.2,29.92,NE,45,4.9,9.1,68,0.00,,---,4.48,VWS V14.01,2013-03-05 20:05:00,
2013-03-05 15:10:00,33.6,24.2,29.92,NNE,22,7.1,7.1,68,0.00,,---,4.48,VWS V14.01,2013-03-05 20:10:00,
2013-03-05 15:15:00,33.6,24.2,29.92,NNE,22,13.1,13.1,68,0.00,,---,4.48,VWS V14.01,2013-03-05 20:15:00,
2013-03-05 15:20:00,33.0,24.0,29.92,NE,45,6.0,7.3,69,0.00,,---,4.48,VWS V14.01,2013-03-05 20:20:00,
2013-03-05 15:25:00,33.0,24.0,29.92,East,90,6.7,6.7,69,0.00,,---,4.48,VWS V14.01,2013-03-05 20:25:00,
2013-03-05 15:30:00,33.0,24.3,29.92,ENE,68,8.7,8.7,70,0.00,,---,4.48,VWS V14.01,2013-03-05 20:30:00,
2013-03-05 15:35:00,32.9,24.2,29.92,ENE,68,2.9,8.5,70,0.00,,---,4.48,VWS V14.01,2013-03-05 20:35:00,
2013-03-05 15:40:00,32.7,24.0,29.92,East,90,7.3,7.3,70,0.00,,---,4.48,VWS V14.01,2013-03-05 20:40:00,
2013-03-05 15:45:00,32.5,23.8,29.92,NNE,22,11.8,11.8,70,0.00,,---,4.48,VWS V14.01,2013-03-05 20:45:00,
2013-03-05 15:50:00,32.1,23.4,29.92,ENE,68,10.0,10.0,70,0.00,,---,4.48,VWS V14.01,2013-03-05 20:50:00,
2013-03-05 15:55:00,32.1,23.4,29.92,ENE,68,6.7,6.7,70,0.00,,---,4.48,VWS V14.01,2013-03-05 20:55:00,
2013-03-05 16:00:00,31.8,23.1,29.91,ESE,112,6.9,6.9,70,0.00,,---,4.48,VWS V14.01,2013-03-05 21:00:00,
2013-03-05 16:05:00,31.8,23.5,29.91,East,90,8.0,8.0,71,0.00,,---,4.48,VWS V14.01,2013-03-05 21:05:00,
2013-03-05 16:10:00,31.8,23.5,29.91,NE,45,8.2,8.2,71,0.00,,---,4.48,VWS V14.01,2013-03-05 21:10:00,
2013-03-05 16:15:00,31.8,23.5,29.91,ENE,68,8.0,8.0,71,0.00,,---,4.48,VWS V14.01,2013-03-05 21:15:00,
2013-03-05 16:20:00,31.6,23.3,29.92,NE,45,7.3,7.3,71,0.00,,---,4.48,VWS V14.01,2013-03-05 21:20:00,
2013-03-05 16:25:00,31.2,22.9,29.92,ENE,68,6.0,8.7,71,0.00,,---,4.48,VWS V14.01,2013-03-05 21:25:00,
2013-03-05 16:30:00,31.1,22.8,29.92,NE,45,8.9,8.9,71,0.00,,---,4.48,VWS V14.01,2013-03-05 21:30:00,
2013-03-05 16:35:00,31.1,22.8,29.92,NE,45,7.8,7.8,71,0.00,,---,4.48,VWS V14.01,2013-03-05 21:35:00,
2013-03-05 16:40:00,30.9,22.6,29.91,NNE,22,13.1,13.1,71,0.00,,---,4.48,VWS V14.01,2013-03-05 21:40:00,
2013-03-05 16:45:00,30.7,22.4,29.90,NE,45,5.8,5.8,71,0.00,,---,4.48,VWS V14.01,2013-03-05 21:45:00,
2013-03-05 16:50:00,30.5,22.2,29.90,ENE,68,10.7,10.7,71,0.00,,---,4.48,VWS V14.01,2013-03-05 21:50:00,
2013-03-05 16:55:00,30.3,22.4,29.90,ENE,68,6.4,6.4,72,0.00,,---,4.48,VWS V14.01,2013-03-05 21:55:00,
2013-03-05 17:00:00,30.3,22.4,29.90,East,90,9.1,9.1,72,0.00,,---,4.48,VWS V14.01,2013-03-05 22:00:00,
2013-03-05 17:05:00,30.0,22.1,29.90,ENE,68,7.8,7.8,72,0.00,,---,4.48,VWS V14.01,2013-03-05 22:05:00,
2013-03-05 17:10:00,30.0,22.4,29.90,NE,45,7.6,7.6,73,0.00,,---,4.48,VWS V14.01,2013-03-05 22:10:00,
2013-03-05 17:15:00,29.8,22.2,29.89,NE,45,5.5,5.5,73,0.00,,---,4.48,VWS V14.01,2013-03-05 22:15:00,
2013-03-05 17:20:00,29.6,22.4,29.90,ENE,68,6.4,6.4,74,0.00,,---,4.48,VWS V14.01,2013-03-05 22:20:00,
2013-03-05 17:25:00,29.4,22.1,29.90,NE,45,8.0,8.0,74,0.00,,---,4.48,VWS V14.01,2013-03-05 22:25:00,
2013-03-05 17:30:00,29.1,21.9,29.89,NE,45,9.1,9.1,74,0.00,,---,4.48,VWS V14.01,2013-03-05 22:30:00,
2013-03-05 17:35:00,28.9,21.7,29.89,East,90,5.5,7.3,74,0.00,,---,4.48,VWS V14.01,2013-03-05 22:35:00,
2013-03-05 17:41:00,28.7,21.8,29.89,ENE,68,7.8,7.8,75,0.00,,---,4.48,VWS V14.01,2013-03-05 22:41:00,
2013-03-05 17:46:00,28.5,21.6,29.89,ENE,68,6.4,6.7,75,0.00,,---,4.48,VWS V14.01,2013-03-05 22:46:00,
2013-03-05 17:51:00,28.5,21.6,29.89,NE,45,10.2,10.2,75,0.00,,---,4.48,VWS V14.01,2013-03-05 22:51:00,
2013-03-05 17:56:00,28.2,21.3,29.89,ENE,68,6.0,6.0,75,0.00,,---,4.48,VWS V14.01,2013-03-05 22:56:00,
2013-03-05 18:01:00,28.2,21.6,29.89,NE,45,10.9,10.9,76,0.00,,---,4.48,VWS V14.01,2013-03-05 23:01:00,
2013-03-05 18:06:00,28.0,21.4,29.89,ENE,68,8.7,8.7,76,0.00,,---,4.48,VWS V14.01,2013-03-05 23:06:00,
2013-03-05 18:11:00,28.0,21.4,29.90,ENE,68,8.9,8.9,76,0.00,,---,4.48,VWS V14.01,2013-03-05 23:11:00,
2013-03-05 18:16:00,27.6,21.4,29.90,East,90,12.5,12.5,77,0.00,,---,4.48,VWS V14.01,2013-03-05 23:16:00,
2013-03-05 18:21:00,27.8,21.5,29.91,NE,45,5.1,5.1,77,0.00,,---,4.48,VWS V14.01,2013-03-05 23:21:00,
2013-03-05 18:26:00,27.6,21.4,29.91,ENE,68,5.1,5.1,77,0.00,,---,4.48,VWS V14.01,2013-03-05 23:26:00,
2013-03-05 18:31:00,27.6,21.4,29.91,East,90,7.3,7.3,77,0.00,,---,4.48,VWS V14.01,2013-03-05 23:31:00,
2013-03-05 18:36:00,27.6,21.4,29.91,NE,45,7.8,7.8,77,0.00,,---,4.48,VWS V14.01,2013-03-05 23:36:00,
2013-03-05 18:41:00,27.6,21.6,29.91,ENE,68,1.5,1.5,78,0.00,,---,4.48,VWS V14.01,2013-03-05 23:41:00,
2013-03-05 18:46:00,27.5,21.5,29.92,ENE,68,6.4,8.7,78,0.00,,---,4.48,VWS V14.01,2013-03-05 23:46:00,
2013-03-05 18:51:00,27.3,21.4,29.91,NE,45,7.8,7.8,78,0.00,,---,4.48,VWS V14.01,2013-03-05 23:51:00,
2013-03-05 18:56:00,27.3,21.4,29.92,East,90,6.4,6.4,78,0.00,,---,4.48,VWS V14.01,2013-03-05 23:56:00,
2013-03-05 19:01:00,27.1,21.2,29.92,ENE,68,3.3,7.3,78,0.00,,---,4.48,VWS V14.01,2013-03-06 00:01:00,
2013-03-05 19:06:00,27.1,21.5,29.92,NNW,338,8.5,8.5,79,0.00,,---,4.48,VWS V14.01,2013-03-06 00:06:00,
2013-03-05 19:12:00,27.1,21.5,29.93,NE,45,6.0,6.0,79,0.00,,---,4.48,VWS V14.01,2013-03-06 00:12:00,
2013-03-05 19:17:00,27.1,21.5,29.94,NE,45,10.9,10.9,79,0.00,,---,4.48,VWS V14.01,2013-03-06 00:17:00,
2013-03-05 19:23:00,27.1,21.5,29.94,ENE,68,10.9,10.9,79,0.00,,---,4.48,VWS V14.01,2013-03-06 00:23:00,
2013-03-05 19:28:00,27.1,21.5,29.94,ENE,68,7.6,7.6,79,0.00,,---,4.48,VWS V14.01,2013-03-06 00:28:00,
2013-03-05 19:33:00,27.1,21.5,29.93,ENE,68,4.0,4.0,79,0.00,,---,4.48,VWS V14.01,2013-03-06 00:33:00,
2013-03-05 19:38:00,27.1,21.5,29.92,ENE,68,7.6,7.6,79,0.00,,---,4.48,VWS V14.01,2013-03-06 00:38:00,
2013-03-05 19:43:00,27.1,21.5,29.92,NNE,22,8.0,8.0,79,0.00,,---,4.48,VWS V14.01,2013-03-06 00:43:00,
2013-03-05 19:48:00,27.1,21.5,29.92,NE,45,3.5,3.5,79,0.00,,---,4.48,VWS V14.01,2013-03-06 00:48:00,
2013-03-05 19:53:00,27.1,21.8,29.92,ENE,68,8.2,12.5,80,0.00,,---,4.48,VWS V14.01,2013-03-06 00:53:00,
2013-03-05 19:58:00,27.1,21.8,29.92,ENE,68,5.3,5.3,80,0.00,,---,4.48,VWS V14.01,2013-03-06 00:58:00,
2013-03-05 20:03:00,26.9,21.6,29.92,NE,45,6.7,6.7,80,0.00,,---,4.48,VWS V14.01,2013-03-06 01:03:00,
2013-03-05 20:08:00,26.9,21.6,29.93,NE,45,2.2,8.5,80,0.00,,---,4.48,VWS V14.01,2013-03-06 01:08:00,
2013-03-05 20:13:00,26.9,21.6,29.93,NNE,22,9.3,9.3,80,0.00,,---,4.48,VWS V14.01,2013-03-06 01:13:00,
2013-03-05 20:18:00,26.9,21.6,29.93,NNE,22,8.5,8.5,80,0.00,,---,4.48,VWS V14.01,2013-03-06 01:18:00,
2013-03-05 20:23:00,26.9,21.6,29.93,ENE,68,7.8,8.7,80,0.00,,---,4.48,VWS V14.01,2013-03-06 01:23:00,
2013-03-05 20:28:00,26.9,21.6,29.93,East,90,6.9,6.9,80,0.00,,---,4.48,VWS V14.01,2013-03-06 01:28:00,
2013-03-05 20:33:00,26.7,21.4,29.93,NNE,22,4.6,4.6,80,0.00,,---,4.48,VWS V14.01,2013-03-06 01:33:00,
2013-03-05 20:38:00,26.7,21.4,29.92,ENE,68,8.0,8.0,80,0.00,,---,4.48,VWS V14.01,2013-03-06 01:38:00,
2013-03-05 20:43:00,26.7,21.4,29.93,ENE,68,11.8,11.8,80,0.00,,---,4.48,VWS V14.01,2013-03-06 01:43:00,
2013-03-05 20:48:00,26.9,21.6,29.92,ENE,68,7.3,7.3,80,0.00,,---,4.48,VWS V14.01,2013-03-06 01:48:00,
2013-03-05 20:53:00,26.9,21.6,29.93,East,90,4.6,4.6,80,0.00,,---,4.48,VWS V14.01,2013-03-06 01:53:00,
2013-03-05 20:58:00,26.9,21.6,29.93,ENE,68,5.3,5.3,80,0.00,,---,4.48,VWS V14.01,2013-03-06 01:58:00,
2013-03-05 21:03:00,27.1,21.8,29.93,ENE,68,7.8,7.8,80,0.00,,---,4.48,VWS V14.01,2013-03-06 02:03:00,
2013-03-05 21:08:00,27.1,21.8,29.92,ENE,68,3.1,6.4,80,0.00,,---,4.48,VWS V14.01,2013-03-06 02:08:00,
2013-03-05 21:13:00,27.1,21.5,29.92,NE,45,2.9,2.9,79,0.00,,---,4.48,VWS V14.01,2013-03-06 02:13:00,
2013-03-05 21:18:00,27.1,21.5,29.92,ENE,68,6.7,6.7,79,0.00,,---,4.48,VWS V14.01,2013-03-06 02:18:00,
2013-03-05 21:23:00,27.1,21.5,29.92,NE,45,6.7,6.7,79,0.00,,---,4.48,VWS V14.01,2013-03-06 02:23:00,
2013-03-05 21:28:00,27.1,21.5,29.92,NE,45,3.1,5.8,79,0.00,,---,4.48,VWS V14.01,2013-03-06 02:28:00,
2013-03-05 21:33:00,27.3,21.7,29.92,NE,45,8.5,8.5,79,0.00,,---,4.48,VWS V14.01,2013-03-06 02:33:00,
2013-03-05 21:38:00,27.3,21.7,29.92,ENE,68,3.3,3.3,79,0.00,,---,4.48,VWS V14.01,2013-03-06 02:38:00,
2013-03-05 21:43:00,27.5,21.9,29.92,NE,45,11.8,11.8,79,0.00,,---,4.48,VWS V14.01,2013-03-06 02:43:00,
2013-03-05 21:48:00,27.5,21.9,29.92,NE,45,8.5,8.5,79,0.00,,---,4.48,VWS V14.01,2013-03-06 02:48:00,
2013-03-05 21:53:00,27.6,22.0,29.92,NNE,22,6.9,6.9,79,0.00,,---,4.48,VWS V14.01,2013-03-06 02:53:00,
2013-03-05 21:58:00,27.6,22.0,29.92,NNE,22,3.3,5.5,79,0.00,,---,4.48,VWS V14.01,2013-03-06 02:58:00,
2013-03-05 22:03:00,27.6,22.2,29.91,NNE,22,9.6,9.6,80,0.00,,---,4.48,VWS V14.01,2013-03-06 03:03:00,
2013-03-05 22:08:00,28.0,22.6,29.91,NNE,22,8.0,8.0,80,0.00,,---,4.48,VWS V14.01,2013-03-06 03:08:00,
2013-03-05 22:13:00,28.0,22.6,29.91,NE,45,8.2,8.2,80,0.00,,---,4.48,VWS V14.01,2013-03-06 03:13:00,
2013-03-05 22:18:00,28.2,22.8,29.91,North,0,5.1,5.1,80,0.00,,---,4.48,VWS V14.01,2013-03-06 03:18:00,
2013-03-05 22:23:00,28.2,22.8,29.91,NE,45,6.9,8.2,80,0.00,,---,4.48,VWS V14.01,2013-03-06 03:23:00,
2013-03-05 22:28:00,28.2,22.8,29.91,NE,45,1.1,8.2,80,0.00,,---,4.48,VWS V14.01,2013-03-06 03:28:00,
2013-03-05 22:33:00,28.2,22.8,29.91,NE,45,6.2,6.2,80,0.00,,---,4.48,VWS V14.01,2013-03-06 03:33:00,
2013-03-05 22:38:00,28.2,22.8,29.91,NNE,22,9.6,9.6,80,0.00,,---,4.48,VWS V14.01,2013-03-06 03:38:00,
2013-03-05 22:43:00,28.2,22.8,29.91,NNE,22,2.6,6.7,80,0.00,,---,4.48,VWS V14.01,2013-03-06 03:43:00,
2013-03-05 22:48:00,28.2,22.8,29.91,ENE,68,7.1,7.1,80,0.00,,---,4.48,VWS V14.01,2013-03-06 03:48:00,
2013-03-05 22:53:00,28.2,23.1,29.91,NE,45,8.5,8.5,81,0.00,,---,4.48,VWS V14.01,2013-03-06 03:53:00,
2013-03-05 22:58:00,28.2,23.1,29.91,ENE,68,4.6,4.6,81,0.00,,---,4.48,VWS V14.01,2013-03-06 03:58:00,
2013-03-05 23:03:00,28.2,23.1,29.91,NE,45,4.6,4.6,81,0.00,,---,4.48,VWS V14.01,2013-03-06 04:03:00,
2013-03-05 23:08:00,28.2,23.1,29.91,NNE,22,8.2,8.2,81,0.00,,---,4.48,VWS V14.01,2013-03-06 04:08:00,
2013-03-05 23:13:00,28.2,23.1,29.91,NNE,22,7.1,7.1,81,0.00,,---,4.48,VWS V14.01,2013-03-06 04:13:00,
2013-03-05 23:18:00,28.2,23.1,29.91,NE,45,5.1,5.1,81,0.00,,---,4.48,VWS V14.01,2013-03-06 04:18:00,
2013-03-05 23:23:00,28.0,22.9,29.91,North,0,8.2,8.2,81,0.00,,---,4.48,VWS V14.01,2013-03-06 04:23:00,
2013-03-05 23:28:00,28.0,22.9,29.91,NNW,338,7.1,7.1,81,0.00,,---,4.48,VWS V14.01,2013-03-06 04:28:00,
2013-03-05 23:33:00,28.0,22.9,29.91,NE,45,7.6,7.6,81,0.00,,---,4.48,VWS V14.01,2013-03-06 04:33:00,
2013-03-05 23:38:00,28.0,22.9,29.91,NE,45,2.9,8.7,81,0.00,,---,4.48,VWS V14.01,2013-03-06 04:38:00,
2013-03-05 23:43:00,28.0,22.9,29.92,NNE,22,6.9,8.7,81,0.00,,---,4.48,VWS V14.01,2013-03-06 04:43:00,
2013-03-05 23:48:00,28.0,22.9,29.92,NE,45,3.3,3.3,81,0.00,,---,4.48,VWS V14.01,2013-03-06 04:48:00,
2013-03-05 23:53:00,28.0,22.9,29.91,NE,45,5.8,5.8,81,0.00,,---,4.48,VWS V14.01,2013-03-06 04:53:00,
2013-03-05 23:58:00,28.2,23.1,29.92,NNE,22,6.9,6.9,81,0.00,,---,4.48,VWS V14.01,2013-03-06 04:58:00,